SCP
0 0 0 0 0 0 0 0 0 0 0 0 0 0 0 0 0 0 0 0 -0 -0 -0 -0 -0 -0 -0 0 0 0 0 0 0 -0 0 -0 -0 -0 -0 -0 -0 -0 -0 -0 0 0 0 0 0
0 0 0 0 0 0 0 0 0 0 0 0 0 0 0 0 0 0 0 0 -0 -0 -0 -0 -0 -0 -0 0 0 0 0 0 0 0 0 0 -0 -0 -0 -0 -0 -0 -0 -0 0 0 0 0 0
0 0 0 0 0 0 0 0 0 0 0 0 0 0 0 0 0 0 0 0 0 -0 -0 -0 0 -0 0 0 0 0 0 0 0 0 0 0 -0 -0 -0 -0 -0 -0 -0 -0 -0 -0 0 0 -0
0 0 0 0 0 0 0 0 0 0 0 0 0 0 0 0 0 0 0 0 0 0 0 -0 0 0 0 0 0 0 0 0 0 0 0 0 -0 -0 -0 -0 -0 -0 -0 -0 -0 -0 0 -0 0
0 0 0 0 0 0 0 0 0 0 0 0 0 0 0 0 0 0 0 0 0 0 0 0 0 0 0 0 0 0 0 0 0 0 0 0 0 0 0 0 0 0 -0 -0 -0 -0 0 0 0
0 0 0 0 0 0 0 0 0 0 0 0 0 0 0 0 0 0 0 0 0 0 0 0 0 0 0 0 0 0 0 0 0 0 0 0 0 0 0 0 0 -0 -0 -0 0 -0 0 0 0
0 0 0 0 0 0 0 0 0 0 0 0 0 0 0 0 0 0 0 0 0 0 0 0 0 0 0 0 0 0 0 0 0 0 0 0 0 0 0 0 0 -0 -0 0 0 -0 0 0 0
0 0 0 0 0 0 0 0 0 0 0 0 0 0 0 0 0 0 0 0 0 0 0 0 0 0 0 0 0 0 0 0 0 0 0 0 0 0 0 0 0 0 0 0 0 0 0 0 0
0 0 0 0 0 0 0 0 0 0 0 0 0 0 0 0 0 0 0 0 0 0 0 0 0 0 0 0 0 0 0 0 0 0 0 0 0 0 0 0 0 0 0 0 0 0 0 0 0
0 0 0 0 0 0 0 0 0 0 0 0 0 0 0 0 0 0 0 0 0 0 0 0 0 0 0 0 0 0 0 0 0 0 0 0 0 0 0 0 0 0 0 0 0 0 -0 -0 0
0 0 0 0 0 0 0 0 0 0 0 0 0 0 0 0 0 0 0 0 0 0 0 0 0 0 0 0 0 0 0 0 0 0 0 0 0 0 0 0 0 0 -0 0 0 0 0 0 0
0 0 0 0 0 0 0 0 0 0 0 0 0 0 0 0 0 0 0 0 0 0 0 0 0 0 0 0 0 0 0 0 0 0 0 0 0 0 0 0 0 0 0 0 0 0 0 0 0
0 0 0 0 0 0 0 0 0 0 0 0 0 1 0 0 0 0 0 0 0 0 0 0 0 0 0 0 0 0 0 0 0 0 0 0 0 0 0 0 0 0 0 0 0 0 0 0 0
0 0 0 0 0 0 0 0 0 0 0 0 0 0 0 0 0 0 0 0 0 0 0 0 0 0 0 0 0 0 0 0 0 0 0 0 0 0 0 0 0 0 0 0 0 0 0 0 0
0 0 0 0 0 0 0 0 0 0 0 0 0 0 0 0 0 0 0 0 0 0 0 0 0 0 0 0 0 0 0 0 0 0 0 0 0 0 0 0 0 0 0 0 0 0 0 0 0
0 0 0 0 -0 -0 0 -0 0 0 0 0 0 0 0 0 0 0 0 0 0 0 0 0 0 0 0 0 0 0 0 0 0 0 0 0 0 0 0 0 0 0 0 0 0 0 0 0 0
0 -0 0 0 -0 -0 0 -0 0 0 0 0 0 0 0 0 0 0 0 0 0 0 0 0 0 0 0 0 0 0 0 0 0 0 0 0 0 0 0 0 0 0 0 0 0 0 0 0 0
0 0 0 0 0 0 0 0 0 0 0 0 0 0 0 0 0 0 0 0 0 0 0 0 0 0 0 0 0 0 0 0 0 0 0 0 0 0 0 0 0 0 0 0 0 0 0 0 0
0 0 0 0 0 0 0 0 0 0 0 0 0 0 0 0 0 0 0 0 0 0 0 0 0 0 0 0 0 0 0 0 0 0 0 0 0 0 0 0 0 0 0 0 0 0 0 0 0
0 0 0 0 0 0 0 0 0 0 0 0 0 0 0 0 0 0 0 0 0 0 0 0 0 0 0 0 0 0 0 0 0 0 0 0 0 0 0 0 0 0 0 0 0 0 0 0 0
-0 0 0 0 0 0 0 0 0 0 0 0 0 0 0 0 0 0 0 0 0 0 0 0 0 0 0 0 0 0 0 0 0 0 0 0 0 0 0 0 0 0 0 0 0 0 0 0 0
0 -0 0 0 0 0 0 0 0 0 0 0 0 0 0 0 0 0 0 0 0 0 0 0 0 0 0 0 0 0 0 0 0 0 0 0 0 0 0 0 0 0 0 0 0 0 0 0 0
-0 0 0 0 0 0 0 0 0 0 0 0 0 0 0 0 0 0 0 0 0 0 0 0 0 0 0 0 0 0 0 0 0 0 0 0 0 0 0 0 0 0 0 0 0 0 0 0 0
-0 0 0 -0 0 0 0 0 0 0 0 -0 0 0 0 0 0 0 0 0 0 0 0 0 0 0 0 0 0 0 0 0 0 0 0 0 0 0 0 0 0 0 0 0 0 0 0 0 0
0 0 0 0 0 0 0 0 0 0 0 0 0 0 0 0 0 0 0 0 0 0 0 0 0 0 0 0 0 0 0 0 0 0 0 0 0 0 0 0 0 0 0 0 0 0 0 0 0
0 0 0 0 0 0 0 0 0 0 0 0 0 0 0 0 0 0 0 0 0 0 0 0 0 0 0 0 0 0 0 0 0 0 0 0 0 0 0 0 0 0 0 0 0 0 0 0 0
-0 -0 -0 0 -0 0 0 0 0 0 0 0 0 0 0 0 0 0 0 0 0 0 0 0 0 0 0 0 0 0 0 0 0 0 0 0 0 0 0 0 0 0 0 0 0 0 0 0 0
-0 -0 -0 -0 -0 -0 0 -0 0 0 0 0 0 0 0 0 0 0 0 0 0 0 0 0 0 0 0 0 0 0 0 0 0 0 0 0 0 0 0 0 0 0 0 0 0 0 0 0 0
0 -0 -0 -0 -0 0 0 0 0 0 0 0 0 0 0 0 0 0 0 0 0 0 0 0 0 0 0 0 0 0 0 0 0 0 0 0 0 0 0 0 0 0 0 0 0 0 0 0 0
-0 0 -0 0 0 0 -0 0 0 0 0 0 0 0 0 0 0 0 0 0 0 0 0 0 0 0 0 0 0 0 0 0 0 0 0 0 0 0 0 0 0 0 0 0 0 0 0 0 0
Wind_Speed_500mb
19 20 15 13 13 16 33 38 26 16 16 12 6 10 15 17 8 4 20 27 45 53 55 57 50 40 32 33 30 28 29 31 33 34 35 34 37 40 39 35 31 28 24 22 22 21 20 20 20
20 18 17 20 16 27 28 37 31 28 11 4 6 14 16 15 7 10 27 36 47 50 54 56 51 42 36 34 29 27 28 32 36 35 38 37 36 38 36 33 29 26 23 22 21 19 17 16 15
20 18 25 11 29 36 34 31 27 30 11 17 11 8 13 0 6 18 12 47 52 50 50 52 53 44 40 35 30 27 27 30 36 37 35 37 37 37 35 32 28 24 22 20 19 17 13 13 13
12 21 27 25 45 41 50 37 17 34 15 19 22 11 6 8 10 15 27 46 55 47 49 52 53 47 43 37 31 27 27 31 33 35 35 37 37 36 33 28 26 23 22 19 16 13 11 11 12
22 27 23 37 54 51 37 41 37 24 28 22 18 19 5 8 14 19 36 49 52 53 54 53 57 50 46 38 33 28 26 29 33 35 35 37 38 36 31 28 25 22 20 16 13 11 9 8 9
30 29 32 44 52 48 48 40 37 37 35 24 14 25 8 11 20 28 41 49 47 55 52 55 56 52 47 39 34 29 25 27 31 35 36 36 36 34 30 27 24 21 18 15 12 10 8 8 7
35 27 46 53 54 51 51 49 41 35 44 44 19 19 7 17 24 34 45 47 47 53 50 50 54 52 47 41 36 30 26 28 31 35 35 36 36 32 29 27 24 20 17 14 11 8 7 4 5
41 23 55 55 47 60 48 55 48 51 49 38 22 14 20 29 34 37 46 47 50 53 54 48 51 55 50 44 39 33 27 29 32 34 35 35 34 30 28 25 23 20 17 14 9 6 8 6 9
28 18 39 64 56 46 53 45 48 48 49 29 21 23 6 38 40 45 51 58 56 56 52 49 50 51 50 48 45 38 30 27 31 32 35 35 32 30 28 27 23 20 16 10 4 5 7 6 7
31 29 58 44 44 46 51 58 58 39 42 50 28 13 23 36 46 57 58 65 66 62 52 52 51 51 49 48 49 46 36 31 35 38 39 36 27 27 23 25 23 19 13 5 6 2 3 11 6
38 47 44 51 52 51 43 53 69 49 41 52 43 32 37 40 49 55 60 61 65 64 62 59 53 50 53 55 55 53 42 35 33 38 42 29 28 34 29 25 23 16 8 4 4 2 2 5 8
37 52 51 51 53 34 32 46 44 68 51 51 53 47 45 46 54 56 62 63 59 59 64 66 54 55 55 55 57 58 49 39 35 36 39 32 30 30 23 20 17 15 10 16 9 7 6 5 9
33 39 46 49 56 52 43 45 44 57 38 56 31 29 42 43 44 46 52 52 63 60 61 67 61 62 60 60 60 62 43 42 36 40 42 32 29 30 26 25 26 23 18 12 11 8 7 8 10
38 43 40 42 46 57 44 47 45 37 46 52 35 36 37 42 46 48 53 59 63 63 58 68 61 61 65 57 66 67 43 40 36 36 40 34 29 29 29 35 26 22 16 15 13 11 10 12 12
30 34 36 39 40 44 51 48 62 59 48 53 59 48 44 41 42 53 57 63 67 66 61 74 69 64 60 61 64 59 43 42 41 38 37 38 31 26 35 39 25 24 22 16 14 13 14 14 13
38 41 39 34 41 49 47 67 54 66 58 67 50 41 45 43 42 48 58 65 67 63 72 63 73 75 66 61 64 52 45 42 40 39 34 37 35 36 47 35 30 25 22 18 16 16 17 16 15
34 36 43 36 29 33 40 63 54 71 46 58 65 58 60 57 47 44 50 67 65 67 65 72 76 76 70 68 64 51 46 46 39 35 38 37 37 49 40 35 31 26 23 20 20 21 21 20 19
38 37 39 33 30 36 45 53 44 64 67 59 41 71 65 56 62 50 55 57 77 69 64 68 74 77 73 71 67 57 46 43 34 38 40 37 49 46 40 37 33 30 28 25 25 25 24 24 22
41 48 49 43 37 38 40 43 39 50 66 46 45 65 72 64 62 51 56 65 76 65 68 68 74 86 79 80 79 67 53 52 46 41 42 54 50 48 40 36 37 33 31 29 28 28 27 26 24
49 50 51 50 47 41 45 47 43 45 43 67 60 63 54 65 72 61 57 65 74 76 79 76 77 77 87 86 81 77 69 54 52 60 56 53 50 47 40 40 34 33 33 33 34 32 31 30 28
53 52 49 48 40 40 40 46 46 50 58 66 66 71 61 62 66 74 65 69 77 84 82 84 81 78 83 79 62 69 66 67 65 61 58 56 50 42 41 39 34 35 36 35 35 35 33 29 32
51 50 48 45 35 29 31 35 46 46 53 54 70 75 71 66 64 66 70 70 79 84 89 86 78 79 77 75 73 79 88 80 76 67 58 55 51 48 46 43 38 39 38 38 38 36 35 32 30
54 36 43 45 37 36 44 26 33 41 49 58 56 68 80 73 64 66 65 69 82 88 86 86 81 83 78 86 79 81 80 73 72 67 61 61 55 52 49 46 42 42 43 42 39 37 35 32 30
33 35 22 38 29 27 45 35 32 38 41 51 56 75 74 74 73 64 59 65 75 82 86 74 78 80 85 85 85 85 80 73 72 67 67 63 59 56 54 51 47 47 45 41 39 37 36 31 29
17 23 13 14 17 24 35 33 39 30 51 46 54 68 77 77 68 74 70 67 72 75 86 82 83 88 87 86 86 75 76 82 71 67 67 67 61 58 57 56 54 51 47 44 40 37 32 27 29
20 23 10 14 21 26 33 21 28 55 54 45 42 72 76 75 80 74 72 72 75 78 88 79 87 89 89 84 84 79 77 81 69 67 68 64 63 60 64 60 59 52 48 44 41 35 29 29 24
17 19 31 9 18 18 15 26 38 42 44 47 36 46 62 68 79 80 76 77 76 77 83 82 85 87 92 91 81 75 78 83 75 71 68 67 64 69 69 65 56 53 51 44 34 26 24 22 21
10 12 15 7 9 12 15 22 10 39 32 32 42 35 50 58 65 72 69 66 68 74 78 78 82 84 91 92 86 85 82 79 77 73 69 66 66 71 72 62 57 47 44 40 30 25 25 27 36
7 7 15 15 17 9 2 7 18 23 3 15 24 33 37 42 46 61 63 60 62 64 71 77 78 82 87 89 86 83 79 81 79 77 74 72 73 66 63 60 55 47 30 23 20 33 35 41 42
6 8 31 11 11 13 15 3 21 21 19 13 14 14 27 36 38 45 50 54 57 62 66 73 80 82 81 88 90 86 85 86 87 84 78 81 74 64 58 51 40 37 24 32 38 41 45 44 44
Wind_Direction_500mb
267 302 298 281 246 230 240 232 231 216 222 210 303 222 258 254 266 22 143 166 165 162 170 172 178 177 173 171 162 160 159 159 152 153 153 149 146 145 140 135 132 126 122 121 118 114 108 101 93
269 290 265 260 246 239 238 238 220 235 223 165 202 243 251 252 89 117 147 150 161 163 173 172 177 174 171 168 163 161 161 161 158 151 153 145 150 141 138 138 134 131 134 128 123 115 104 95 86
289 262 259 236 235 241 245 224 228 238 227 239 237 243 266 46 138 156 170 153 159 168 165 179 176 176 168 168 165 161 163 163 161 159 156 155 148 145 146 143 140 140 135 131 125 115 105 91 78
262 240 251 248 236 229 244 258 201 233 198 231 234 250 177 182 148 169 164 161 161 168 166 187 180 177 169 169 165 164 163 163 162 161 161 156 154 153 151 146 142 147 142 137 127 116 105 86 73
238 243 246 243 244 245 244 246 244 245 226 203 204 238 191 180 183 171 161 162 165 171 175 184 179 179 174 171 168 168 165 167 166 165 161 161 159 156 154 150 150 149 144 138 128 119 102 77 68
235 234 237 239 240 247 239 232 241 241 237 208 214 252 216 188 171 164 160 164 168 176 177 174 176 182 177 176 173 170 165 167 169 169 167 166 163 159 158 154 155 153 150 144 134 115 87 66 62
244 231 239 241 250 234 244 231 242 237 235 234 218 242 176 177 175 167 164 165 171 179 175 171 175 183 181 179 178 175 169 170 172 173 171 169 166 164 162 160 161 157 156 147 139 117 92 62 22
250 257 253 247 245 243 240 229 232 244 245 242 200 231 218 179 185 171 160 171 172 180 169 173 175 183 187 184 186 182 175 174 175 176 173 173 170 168 168 167 166 166 162 157 146 100 45 62 39
243 241 241 240 241 247 254 249 236 241 250 234 212 239 130 162 188 167 167 173 173 181 173 176 178 182 187 188 188 183 177 178 179 179 174 175 175 175 173 176 175 176 173 169 144 94 45 31 52
220 242 244 259 262 256 248 247 240 235 231 242 213 220 158 179 179 177 177 177 177 177 179 179 179 183 189 194 191 185 183 185 183 183 182 178 181 179 176 184 183 183 180 204 120 95 41 67 52
244 246 262 269 277 315 316 267 252 232 244 232 214 206 176 181 180 184 184 187 185 181 183 176 179 183 188 197 193 191 189 194 185 185 183 177 182 192 186 187 184 185 196 179 198 193 180 185 150
259 262 271 278 280 296 303 308 262 262 230 253 241 218 185 186 187 189 187 189 187 187 193 187 178 181 196 195 195 197 195 193 189 189 185 187 184 187 177 190 186 189 181 196 213 227 253 217 187
270 273 273 275 276 276 284 288 286 277 267 240 236 163 189 196 196 194 193 191 189 193 191 191 182 181 196 202 195 196 192 199 195 195 191 190 187 189 184 191 197 191 190 207 224 238 238 204 180
278 290 282 277 276 274 271 276 280 263 254 265 250 197 203 202 201 195 194 194 194 196 194 187 190 190 195 202 195 203 198 199 198 196 197 190 191 190 190 202 197 190 186 206 229 236 220 202 198
274 280 276 266 260 264 265 265 247 254 266 279 244 238 215 218 201 200 203 200 194 200 192 197 191 189 197 204 198 201 197 200 201 198 197 199 192 189 205 213 198 202 216 230 243 232 215 212 206
268 267 267 263 247 250 234 250 257 236 236 251 247 260 217 212 204 205 208 206 202 195 198 201 198 198 199 199 203 200 202 203 204 199 195 204 195 200 216 214 208 211 228 236 239 223 212 209 207
249 255 263 270 244 240 240 249 244 254 247 231 247 238 235 222 214 211 209 208 203 206 201 206 201 203 199 202 204 203 207 208 205 196 199 200 198 212 216 213 215 218 230 238 233 221 216 215 213
269 261 260 256 258 256 245 255 251 245 231 241 234 243 241 226 217 213 211 218 212 208 201 207 208 205 201 205 209 206 206 205 198 199 202 199 211 212 217 216 220 230 236 240 231 223 218 220 219
262 268 274 276 275 276 267 271 261 239 243 253 224 243 227 226 220 209 211 209 209 203 201 206 207 206 204 206 207 210 200 203 203 201 198 206 215 215 213 217 229 235 241 238 229 222 222 221 217
259 260 260 266 262 264 268 266 262 269 253 232 232 238 241 226 220 208 210 208 206 211 206 201 208 208 207 209 209 211 211 208 205 209 214 217 215 218 217 228 232 236 242 234 226 221 219 220 213
253 247 254 259 270 269 270 264 254 245 251 254 249 234 238 241 225 216 207 212 206 210 211 210 213 212 210 204 197 210 209 208 211 214 216 215 211 216 223 226 235 237 238 234 227 222 221 228 221
251 242 245 255 263 264 256 260 253 236 233 235 240 218 229 237 225 221 214 210 208 206 211 216 218 217 212 198 199 211 212 212 216 218 215 212 210 216 222 227 233 237 237 233 228 225 224 227 228
265 252 250 249 249 251 255 266 268 245 226 221 226 219 218 228 226 221 211 209 215 208 215 217 217 222 217 206 202 206 216 216 219 220 211 213 216 217 224 230 234 235 234 230 228 226 228 226 235
247 228 250 242 234 239 245 240 256 246 246 214 214 218 220 218 222 224 221 210 217 208 208 212 213 213 206 204 210 217 214 213 213 213 212 217 219 221 226 231 233 233 231 228 224 221 218 224 234
189 174 214 206 209 233 228 228 237 245 230 230 208 209 220 220 216 218 219 208 211 206 206 213 213 210 206 207 214 213 210 220 219 215 215 214 222 224 228 233 235 232 227 223 219 215 216 227 242
203 190 209 217 228 239 223 241 228 223 250 270 215 207 211 214 212 210 210 209 207 207 206 208 206 206 206 208 215 214 209 221 217 219 220 223 225 230 229 232 232 228 222 214 211 207 226 240 230
162 205 221 335 264 269 213 228 245 219 224 232 235 227 204 211 209 208 205 204 203 202 203 207 207 208 210 214 214 211 210 222 221 221 222 223 227 231 228 229 227 222 209 204 207 228 220 225 239
280 302 220 230 269 220 224 205 209 194 210 223 203 213 213 204 205 207 205 202 203 205 205 207 209 210 213 216 215 218 221 224 225 224 225 224 231 231 226 223 214 207 205 209 236 224 228 231 237
200 209 220 247 273 317 7 133 358 13 117 181 195 213 214 221 204 203 198 199 203 206 209 207 207 209 215 214 216 219 220 223 223 225 227 229 233 231 218 218 203 194 213 232 244 274 233 233 247
319 268 214 232 228 216 299 62 19 7 339 307 273 221 219 213 201 186 186 189 197 207 208 203 204 210 212 218 219 221 222 222 220 222 226 226 221 216 211 198 187 195 232 246 253 225 248 249 251
Wind_Speed_850mb
19 20 15 13 13 16 33 38 26 16 16 12 6 10 15 17 8 4 20 27 45 53 55 57 50 40 32 33 30 28 29 31 33 34 35 34 37 40 39 35 31 28 24 22 22 21 20 20 20
20 18 17 20 16 27 28 37 31 28 11 4 6 14 16 15 7 10 27 36 47 50 54 56 51 42 36 34 29 27 28 32 36 35 38 37 36 38 36 33 29 26 23 22 21 19 17 16 15
20 18 25 11 29 36 34 31 27 30 11 17 11 8 13 0 6 18 12 47 52 50 50 52 53 44 40 35 30 27 27 30 36 37 35 37 37 37 35 32 28 24 22 20 19 17 13 13 13
12 21 27 25 45 41 50 37 17 34 15 19 22 11 6 8 10 15 27 46 55 47 49 52 53 47 43 37 31 27 27 31 33 35 35 37 37 36 33 28 26 23 22 19 16 13 11 11 12
22 27 23 37 54 51 37 41 37 24 28 22 18 19 5 8 14 19 36 49 52 53 54 53 57 50 46 38 33 28 26 29 33 35 35 37 38 36 31 28 25 22 20 16 13 11 9 8 9
30 29 32 44 52 48 48 40 37 37 35 24 14 25 8 11 20 28 41 49 47 55 52 55 56 52 47 39 34 29 25 27 31 35 36 36 36 34 30 27 24 21 18 15 12 10 8 8 7
35 27 46 53 54 51 51 49 41 35 44 44 19 19 7 17 24 34 45 47 47 53 50 50 54 52 47 41 36 30 26 28 31 35 35 36 36 32 29 27 24 20 17 14 11 8 7 4 5
41 23 55 55 47 60 48 55 48 51 49 38 22 14 20 29 34 37 46 47 50 53 54 48 51 55 50 44 39 33 27 29 32 34 35 35 34 30 28 25 23 20 17 14 9 6 8 6 9
28 18 39 64 56 46 53 45 48 48 49 29 21 23 6 38 40 45 51 58 56 56 52 49 50 51 50 48 45 38 30 27 31 32 35 35 32 30 28 27 23 20 16 10 4 5 7 6 7
31 29 58 44 44 46 51 58 58 39 42 50 28 13 23 36 46 57 58 65 66 62 52 52 51 51 49 48 49 46 36 31 35 38 39 36 27 27 23 25 23 19 13 5 6 2 3 11 6
38 47 44 51 52 51 43 53 69 49 41 52 43 32 37 40 49 55 60 61 65 64 62 59 53 50 53 55 55 53 42 35 33 38 42 29 28 34 29 25 23 16 8 4 4 2 2 5 8
37 52 51 51 53 34 32 46 44 68 51 51 53 47 45 46 54 56 62 63 59 59 64 66 54 55 55 55 57 58 49 39 35 36 39 32 30 30 23 20 17 15 10 16 9 7 6 5 9
33 39 46 49 56 52 43 45 44 57 38 56 31 29 42 43 44 46 52 52 63 60 61 67 61 62 60 60 60 62 43 42 36 40 42 32 29 30 26 25 26 23 18 12 11 8 7 8 10
38 43 40 42 46 57 44 47 45 37 46 52 35 36 37 42 46 48 53 59 63 63 58 68 61 61 65 57 66 67 43 40 36 36 40 34 29 29 29 35 26 22 16 15 13 11 10 12 12
30 34 36 39 40 44 51 48 62 59 48 53 59 48 44 41 42 53 57 63 67 66 61 74 69 64 60 61 64 59 43 42 41 38 37 38 31 26 35 39 25 24 22 16 14 13 14 14 13
38 41 39 34 41 49 47 67 54 66 58 67 50 41 45 43 42 48 58 65 67 63 72 63 73 75 66 61 64 52 45 42 40 39 34 37 35 36 47 35 30 25 22 18 16 16 17 16 15
34 36 43 36 29 33 40 63 54 71 46 58 65 58 60 57 47 44 50 67 65 67 65 72 76 76 70 68 64 51 46 46 39 35 38 37 37 49 40 35 31 26 23 20 20 21 21 20 19
38 37 39 33 30 36 45 53 44 64 67 59 41 71 65 56 62 50 55 57 77 69 64 68 74 77 73 71 67 57 46 43 34 38 40 37 49 46 40 37 33 30 28 25 25 25 24 24 22
41 48 49 43 37 38 40 43 39 50 66 46 45 65 72 64 62 51 56 65 76 65 68 68 74 86 79 80 79 67 53 52 46 41 42 54 50 48 40 36 37 33 31 29 28 28 27 26 24
49 50 51 50 47 41 45 47 43 45 43 67 60 63 54 65 72 61 57 65 74 76 79 76 77 77 87 86 81 77 69 54 52 60 56 53 50 47 40 40 34 33 33 33 34 32 31 30 28
53 52 49 48 40 40 40 46 46 50 58 66 66 71 61 62 66 74 65 69 77 84 82 84 81 78 83 79 62 69 66 67 65 61 58 56 50 42 41 39 34 35 36 35 35 35 33 29 32
51 50 48 45 35 29 31 35 46 46 53 54 70 75 71 66 64 66 70 70 79 84 89 86 78 79 77 75 73 79 88 80 76 67 58 55 51 48 46 43 38 39 38 38 38 36 35 32 30
54 36 43 45 37 36 44 26 33 41 49 58 56 68 80 73 64 66 65 69 82 88 86 86 81 83 78 86 79 81 80 73 72 67 61 61 55 52 49 46 42 42 43 42 39 37 35 32 30
33 35 22 38 29 27 45 35 32 38 41 51 56 75 74 74 73 64 59 65 75 82 86 74 78 80 85 85 85 85 80 73 72 67 67 63 59 56 54 51 47 47 45 41 39 37 36 31 29
17 23 13 14 17 24 35 33 39 30 51 46 54 68 77 77 68 74 70 67 72 75 86 82 83 88 87 86 86 75 76 82 71 67 67 67 61 58 57 56 54 51 47 44 40 37 32 27 29
20 23 10 14 21 26 33 21 28 55 54 45 42 72 76 75 80 74 72 72 75 78 88 79 87 89 89 84 84 79 77 81 69 67 68 64 63 60 64 60 59 52 48 44 41 35 29 29 24
17 19 31 9 18 18 15 26 38 42 44 47 36 46 62 68 79 80 76 77 76 77 83 82 85 87 92 91 81 75 78 83 75 71 68 67 64 69 69 65 56 53 51 44 34 26 24 22 21
10 12 15 7 9 12 15 22 10 39 32 32 42 35 50 58 65 72 69 66 68 74 78 78 82 84 91 92 86 85 82 79 77 73 69 66 66 71 72 62 57 47 44 40 30 25 25 27 36
7 7 15 15 17 9 2 7 18 23 3 15 24 33 37 42 46 61 63 60 62 64 71 77 78 82 87 89 86 83 79 81 79 77 74 72 73 66 63 60 55 47 30 23 20 33 35 41 42
6 8 31 11 11 13 15 3 21 21 19 13 14 14 27 36 38 45 50 54 57 62 66 73 80 82 81 88 90 86 85 86 87 84 78 81 74 64 58 51 40 37 24 32 38 41 45 44 44
Wind_Direction_850mb
267 302 298 281 246 230 240 232 231 216 222 210 303 222 258 254 266 22 143 166 165 162 170 172 178 177 173 171 162 160 159 159 152 153 153 149 146 145 140 135 132 126 122 121 118 114 108 101 93
269 290 265 260 246 239 238 238 220 235 223 165 202 243 251 252 89 117 147 150 161 163 173 172 177 174 171 168 163 161 161 161 158 151 153 145 150 141 138 138 134 131 134 128 123 115 104 95 86
289 262 259 236 235 241 245 224 228 238 227 239 237 243 266 46 138 156 170 153 159 168 165 179 176 176 168 168 165 161 163 163 161 159 156 155 148 145 146 143 140 140 135 131 125 115 105 91 78
262 240 251 248 236 229 244 258 201 233 198 231 234 250 177 182 148 169 164 161 161 168 166 187 180 177 169 169 165 164 163 163 162 161 161 156 154 153 151 146 142 147 142 137 127 116 105 86 73
238 243 246 243 244 245 244 246 244 245 226 203 204 238 191 180 183 171 161 162 165 171 175 184 179 179 174 171 168 168 165 167 166 165 161 161 159 156 154 150 150 149 144 138 128 119 102 77 68
235 234 237 239 240 247 239 232 241 241 237 208 214 252 216 188 171 164 160 164 168 176 177 174 176 182 177 176 173 170 165 167 169 169 167 166 163 159 158 154 155 153 150 144 134 115 87 66 62
244 231 239 241 250 234 244 231 242 237 235 234 218 242 176 177 175 167 164 165 171 179 175 171 175 183 181 179 178 175 169 170 172 173 171 169 166 164 162 160 161 157 156 147 139 117 92 62 22
250 257 253 247 245 243 240 229 232 244 245 242 200 231 218 179 185 171 160 171 172 180 169 173 175 183 187 184 186 182 175 174 175 176 173 173 170 168 168 167 166 166 162 157 146 100 45 62 39
243 241 241 240 241 247 254 249 236 241 250 234 212 239 130 162 188 167 167 173 173 181 173 176 178 182 187 188 188 183 177 178 179 179 174 175 175 175 173 176 175 176 173 169 144 94 45 31 52
220 242 244 259 262 256 248 247 240 235 231 242 213 220 158 179 179 177 177 177 177 177 179 179 179 183 189 194 191 185 183 185 183 183 182 178 181 179 176 184 183 183 180 204 120 95 41 67 52
244 246 262 269 277 315 316 267 252 232 244 232 214 206 176 181 180 184 184 187 185 181 183 176 179 183 188 197 193 191 189 194 185 185 183 177 182 192 186 187 184 185 196 179 198 193 180 185 150
259 262 271 278 280 296 303 308 262 262 230 253 241 218 185 186 187 189 187 189 187 187 193 187 178 181 196 195 195 197 195 193 189 189 185 187 184 187 177 190 186 189 181 196 213 227 253 217 187
270 273 273 275 276 276 284 288 286 277 267 240 236 163 189 196 196 194 193 191 189 193 191 191 182 181 196 202 195 196 192 199 195 195 191 190 187 189 184 191 197 191 190 207 224 238 238 204 180
278 290 282 277 276 274 271 276 280 263 254 265 250 197 203 202 201 195 194 194 194 196 194 187 190 190 195 202 195 203 198 199 198 196 197 190 191 190 190 202 197 190 186 206 229 236 220 202 198
274 280 276 266 260 264 265 265 247 254 266 279 244 238 215 218 201 200 203 200 194 200 192 197 191 189 197 204 198 201 197 200 201 198 197 199 192 189 205 213 198 202 216 230 243 232 215 212 206
268 267 267 263 247 250 234 250 257 236 236 251 247 260 217 212 204 205 208 206 202 195 198 201 198 198 199 199 203 200 202 203 204 199 195 204 195 200 216 214 208 211 228 236 239 223 212 209 207
249 255 263 270 244 240 240 249 244 254 247 231 247 238 235 222 214 211 209 208 203 206 201 206 201 203 199 202 204 203 207 208 205 196 199 200 198 212 216 213 215 218 230 238 233 221 216 215 213
269 261 260 256 258 256 245 255 251 245 231 241 234 243 241 226 217 213 211 218 212 208 201 207 208 205 201 205 209 206 206 205 198 199 202 199 211 212 217 216 220 230 236 240 231 223 218 220 219
262 268 274 276 275 276 267 271 261 239 243 253 224 243 227 226 220 209 211 209 209 203 201 206 207 206 204 206 207 210 200 203 203 201 198 206 215 215 213 217 229 235 241 238 229 222 222 221 217
259 260 260 266 262 264 268 266 262 269 253 232 232 238 241 226 220 208 210 208 206 211 206 201 208 208 207 209 209 211 211 208 205 209 214 217 215 218 217 228 232 236 242 234 226 221 219 220 213
253 247 254 259 270 269 270 264 254 245 251 254 249 234 238 241 225 216 207 212 206 210 211 210 213 212 210 204 197 210 209 208 211 214 216 215 211 216 223 226 235 237 238 234 227 222 221 228 221
251 242 245 255 263 264 256 260 253 236 233 235 240 218 229 237 225 221 214 210 208 206 211 216 218 217 212 198 199 211 212 212 216 218 215 212 210 216 222 227 233 237 237 233 228 225 224 227 228
265 252 250 249 249 251 255 266 268 245 226 221 226 219 218 228 226 221 211 209 215 208 215 217 217 222 217 206 202 206 216 216 219 220 211 213 216 217 224 230 234 235 234 230 228 226 228 226 235
247 228 250 242 234 239 245 240 256 246 246 214 214 218 220 218 222 224 221 210 217 208 208 212 213 213 206 204 210 217 214 213 213 213 212 217 219 221 226 231 233 233 231 228 224 221 218 224 234
189 174 214 206 209 233 228 228 237 245 230 230 208 209 220 220 216 218 219 208 211 206 206 213 213 210 206 207 214 213 210 220 219 215 215 214 222 224 228 233 235 232 227 223 219 215 216 227 242
203 190 209 217 228 239 223 241 228 223 250 270 215 207 211 214 212 210 210 209 207 207 206 208 206 206 206 208 215 214 209 221 217 219 220 223 225 230 229 232 232 228 222 214 211 207 226 240 230
162 205 221 335 264 269 213 228 245 219 224 232 235 227 204 211 209 208 205 204 203 202 203 207 207 208 210 214 214 211 210 222 221 221 222 223 227 231 228 229 227 222 209 204 207 228 220 225 239
280 302 220 230 269 220 224 205 209 194 210 223 203 213 213 204 205 207 205 202 203 205 205 207 209 210 213 216 215 218 221 224 225 224 225 224 231 231 226 223 214 207 205 209 236 224 228 231 237
200 209 220 247 273 317 7 133 358 13 117 181 195 213 214 221 204 203 198 199 203 206 209 207 207 209 215 214 216 219 220 223 223 225 227 229 233 231 218 218 203 194 213 232 244 274 233 233 247
319 268 214 232 228 216 299 62 19 7 339 307 273 221 219 213 201 186 186 189 197 207 208 203 204 210 212 218 219 221 222 222 220 222 226 226 221 216 211 198 187 195 232 246 253 225 248 249 251